Temperature
20 20 20 20 18 18 20 20 20 21 21 22 22 21 20 19 19 18 18 18 18 18 18 18 18 18 18 18 18 18 18 18 18 18 18 18 18 18 18 18 17 17 18 18 18 18 18 18 18
20 20 20 19 18 19 20 20 20 22 22 22 22 21 20 19 18 18 18 18 18 18 18 18 18 18 18 18 18 18 18 18 18 17 17 17 17 17 17 17 17 17 17 17 17 17 18 18 18
20 20 19 18 19 19 20 21 21 22 23 23 22 21 20 19 19 18 18 18 18 18 18 18 18 18 18 18 18 18 17 17 17 17 17 17 17 17 17 17 17 17 17 17 17 17 17 17 18
20 20 19 18 20 20 21 21 21 22 23 22 21 20 20 20 19 19 18 19 19 18 18 18 18 18 18 18 17 17 17 17 17 17 17 17 17 17 17 17 17 17 17 17 17 17 17 17 17
20 19 18 19 20 21 21 21 22 22 22 21 21 19 19 20 19 19 19 19 19 18 18 18 18 18 18 17 17 17 17 17 16 16 16 16 16 16 16 16 16 16 16 16 17 17 17 17 17
20 18 18 19 20 21 21 21 22 21 21 21 20 19 19 19 19 19 19 19 19 19 18 18 18 18 17 17 17 17 17 16 16 16 16 16 16 16 16 16 16 16 16 16 16 16 17 17 17
19 17 19 20 20 20 21 21 22 21 21 21 21 19 19 19 19 19 19 19 19 19 19 18 18 18 17 17 17 17 16 16 16 16 16 16 15 15 15 15 15 15 15 15 16 16 16 16 17
19 17 19 19 20 20 21 21 22 22 21 21 21 19 19 19 19 19 19 19 19 19 19 18 18 18 17 17 17 17 16 16 16 16 16 15 15 15 15 15 15 15 15 15 15 15 16 16 16
19 17 18 19 20 20 21 21 21 22 22 21 21 21 20 20 20 20 19 19 19 19 19 18 18 18 18 17 17 17 16 16 16 16 16 15 15 15 15 15 15 15 15 15 15 15 15 15 16
19 17 19 20 20 20 21 21 21 21 21 21 21 21 20 20 20 20 20 19 19 19 19 18 18 18 18 17 17 17 16 16 16 16 16 15 15 15 15 15 15 15 15 15 15 15 15 15 16
18 18 19 20 21 21 21 21 21 21 19 20 20 20 20 20 20 20 20 20 20 19 19 19 19 18 18 18 17 17 17 16 16 16 16 16 15 15 15 15 15 15 15 15 15 15 15 15 15
19 19 20 20 21 21 21 21 21 21 21 22 22 21 21 21 20 20 20 20 20 20 19 19 19 18 18 18 17 17 17 16 16 16 16 16 15 15 15 15 15 15 15 15 15 15 15 15 15
19 19 20 21 22 22 21 21 21 21 22 22 22 21 21 21 21 21 20 20 20 20 20 19 19 19 18 18 17 17 17 16 16 16 16 15 15 15 15 15 15 15 15 15 15 15 15 15 15
20 20 21 21 22 22 21 21 21 21 22 22 21 21 21 21 21 21 21 21 21 20 20 20 19 19 18 18 18 17 17 16 16 16 15 15 15 15 15 15 15 14 14 14 14 14 15 15 15
20 20 20 21 22 22 22 21 21 22 22 22 21 21 21 21 21 21 21 21 21 21 20 20 19 19 19 18 18 17 17 16 16 16 15 15 15 15 15 14 14 14 14 14 14 14 15 15 15
20 19 19 20 21 22 21 20 20 22 22 21 22 22 22 22 22 22 21 21 21 21 20 20 20 19 19 18 18 17 17 16 16 16 15 15 15 15 14 14 14 14 14 14 14 14 15 15 15
19 18 19 20 21 21 20 20 20 22 22 21 22 22 22 22 22 22 22 21 21 21 21 20 20 19 19 18 18 17 17 16 16 16 15 15 15 14 14 14 14 14 14 14 14 14 14 15 15
18 18 19 20 21 21 20 19 20 21 21 21 22 22 22 22 22 22 22 21 21 21 21 20 20 19 19 18 18 17 17 16 16 16 15 15 15 14 14 14 14 14 14 14 14 14 14 15 15
19 19 19 20 21 21 20 20 20 20 21 21 21 22 22 22 22 22 22 21 21 21 21 20 20 19 19 18 18 17 17 16 16 16 15 15 15 15 14 14 14 14 14 14 14 14 14 15 15
19 19 19 20 21 21 19 19 19 20 20 21 21 22 22 22 22 22 22 21 21 21 21 20 20 19 19 18 18 17 17 16 16 16 15 15 15 15 14 14 14 14 14 14 14 14 14 14 14
19 19 19 20 20 20 19 19 19 19 20 21 21 22 22 22 22 22 21 21 21 21 21 20 20 20 19 19 18 17 17 16 16 16 15 15 15 15 14 14 14 14 14 14 14 14 14 14 14
19 20 20 20 19 18 19 18 19 19 19 19 20 21 21 22 22 22 21 21 21 21 21 20 20 19 19 18 18 18 17 17 16 16 16 15 15 15 15 14 14 14 14 14 14 14 14 14 14
19 20 20 19 18 18 18 18 18 19 19 19 19 20 21 21 21 21 21 21 21 21 20 20 20 19 19 18 18 17 17 17 16 16 16 15 15 15 15 15 14 14 14 14 14 14 14 14 14
20 19 18 17 17 18 18 18 19 18 19 19 19 20 21 21 21 21 21 21 21 20 20 20 20 19 19 18 18 17 17 17 16 16 16 16 15 15 15 15 15 14 14 14 14 14 14 14 14
18 17 18 18 17 18 18 19 18 19 19 19 19 20 20 21 21 21 21 20 20 20 20 20 19 19 19 18 18 17 17 17 16 16 16 16 16 15 15 15 15 15 15 14 14 14 14 14 14
18 18 17 17 17 17 19 19 19 20 20 20 20 20 20 20 20 20 20 20 20 20 20 19 19 19 18 18 18 17 17 17 16 16 16 16 16 15 15 15 15 15 15 15 14 14 14 14 14
18 17 17 17 17 17 18 19 19 19 18 19 19 19 19 20 20 20 20 20 20 20 19 19 19 18 18 18 17 17 17 17 16 16 16 16 16 16 15 15 15 15 15 15 15 15 14 14 14
19 18 17 17 17 17 18 18 17 18 18 18 18 18 19 19 19 19 19 19 19 19 19 19 19 18 18 18 17 17 17 17 16 16 16 16 16 16 16 16 16 15 15 15 15 15 15 14 14
20 19 18 16 17 17 17 18 19 19 18 18 18 19 19 19 19 19 19 19 19 19 19 19 19 18 18 18 17 17 17 16 16 16 16 16 16 16 15 15 15 15 15 15 15 15 15 15 14
21 20 18 18 18 17 17 18 20 19 19 19 18 19 19 19 19 19 19 19 19 19 19 19 18 18 18 17 17 17 16 16 16 16 16 16 16 16 15 15 15 15 15 15 15 15 15 15 15
Wind_Speed
5 4 1 3 4 4 2 2 1 0 2 3 6 10 8 6 5 7 4 10 12 9 10 12 12 12 12 12 12 11 11 11 11 11 10 10 10 9 9 9 8 8 8 7 7 7 6 6 6
2 1 2 3 4 2 1 2 2 1 5 7 8 8 8 7 7 8 6 11 11 10 11 11 13 12 12 12 11 11 11 10 10 10 10 9 9 8 8 8 8 7 7 7 6 6 5 5 5
2 1 2 3 2 3 3 3 3 2 4 4 5 6 6 5 6 6 9 12 11 10 11 12 13 12 12 11 11 10 10 10 9 9 9 8 8 7 7 7 7 6 6 6 6 5 5 4 4
2 3 3 3 1 2 4 3 2 4 5 5 6 6 4 3 5 9 14 13 12 9 11 13 13 13 12 11 10 10 9 8 8 7 7 7 6 6 6 6 6 5 5 5 5 5 4 4 4
3 3 3 2 1 1 1 2 2 4 3 5 7 6 4 3 12 16 14 13 13 9 10 13 14 13 12 11 10 9 8 7 6 6 5 5 5 5 4 4 4 4 4 4 4 4 4 4 4
3 3 3 0 0 1 1 1 4 6 6 7 8 7 3 6 12 14 13 12 12 11 10 12 13 13 12 11 10 8 7 6 5 4 3 3 3 2 2 2 2 2 3 3 3 4 4 4 4
3 3 2 2 1 1 0 0 3 5 5 5 6 6 5 5 10 13 13 12 10 10 9 9 11 11 11 10 9 8 6 4 3 1 1 1 1 2 2 2 2 2 3 3 4 5 5 6 6
4 3 1 1 2 1 1 1 2 5 5 6 6 8 7 8 10 12 11 10 9 8 7 7 9 9 9 9 9 7 6 4 3 2 2 3 3 4 3 4 4 4 4 4 5 6 7 7 7
3 4 1 2 3 2 1 3 2 3 5 3 3 6 10 13 12 11 9 6 7 8 7 6 6 7 8 8 7 7 6 4 3 4 4 4 4 4 4 4 5 5 5 6 7 7 8 8 8
4 3 4 3 3 3 1 4 2 4 7 5 7 8 11 11 11 11 10 9 8 8 8 7 6 7 7 6 6 6 4 3 3 4 3 2 2 2 2 3 3 4 5 6 7 8 8 8 7
4 5 4 2 3 2 2 3 3 6 5 8 13 14 12 10 10 10 9 9 8 8 9 8 7 7 6 4 4 4 3 2 1 1 0 1 3 4 4 4 5 5 5 5 6 7 7 6 5
3 3 3 2 2 2 2 2 3 4 8 10 12 14 12 11 10 10 9 8 7 8 9 8 8 6 5 4 3 3 3 2 1 2 3 4 3 3 3 3 4 4 4 4 4 4 5 5 5
2 3 3 3 2 3 3 3 4 3 6 9 11 10 11 11 9 8 9 8 8 8 7 7 7 6 5 4 3 4 3 3 3 5 6 6 3 3 3 3 4 5 5 4 3 4 4 4 4
4 4 4 3 3 3 5 2 3 4 7 10 11 10 10 10 9 7 8 8 8 8 8 7 7 7 6 5 4 3 4 4 5 6 7 8 6 3 3 3 3 4 5 4 3 3 3 3 3
3 2 2 3 3 2 5 2 3 7 9 10 10 9 9 9 9 10 10 10 9 9 8 8 8 7 7 6 5 4 5 6 5 5 7 8 7 5 3 3 4 4 6 6 4 4 3 4 4
2 2 2 4 4 3 6 3 4 6 9 8 8 8 9 8 8 9 9 9 9 9 8 7 8 9 7 6 5 4 5 6 5 6 7 7 7 6 4 3 3 4 5 4 3 3 3 4 3
1 3 4 3 3 4 5 4 4 4 8 8 7 7 7 6 6 7 8 9 10 10 9 7 8 8 7 6 5 4 5 5 4 5 5 6 7 7 5 3 3 4 4 3 4 3 2 3 4
4 3 4 5 3 6 5 4 3 4 7 8 7 6 6 6 7 8 8 9 9 9 9 8 8 7 7 6 5 4 4 3 3 3 3 5 5 6 5 3 4 4 4 4 4 3 3 2 3
3 3 3 4 5 6 6 3 3 3 4 5 5 6 6 6 5 6 7 8 9 8 8 8 8 7 6 4 4 3 2 1 1 1 2 3 4 4 4 3 3 4 3 3 4 3 4 3 3
3 3 3 1 4 6 5 1 1 2 4 6 7 7 6 5 4 5 6 7 8 8 8 8 8 7 6 4 3 3 3 1 1 0 1 2 2 2 3 3 3 3 3 4 5 3 3 3 3
5 5 5 4 3 5 6 4 3 2 2 3 4 5 5 7 7 6 6 6 7 7 7 8 7 7 6 5 4 4 3 3 2 1 1 1 1 1 2 2 2 2 2 2 3 3 3 3 3
4 4 4 5 6 2 4 2 2 1 2 2 3 4 4 5 6 5 5 5 6 6 6 6 7 7 6 6 6 5 3 2 2 2 2 2 2 1 0 1 2 2 2 2 3 3 2 2 2
5 2 3 5 5 4 2 4 4 1 4 3 3 4 4 5 7 6 5 5 5 5 6 6 7 6 5 6 6 5 3 2 1 0 0 1 2 2 2 0 1 1 1 2 3 3 2 1 1
3 5 6 5 4 2 3 4 5 5 8 7 4 4 5 5 6 5 4 5 5 5 6 6 7 5 5 5 5 5 4 2 1 0 0 1 2 2 2 1 0 0 1 1 2 2 2 2 1
4 5 4 3 2 3 2 2 6 7 9 10 10 7 6 6 6 6 5 5 5 6 6 6 7 5 4 5 4 4 4 3 2 2 2 1 1 2 3 2 1 1 1 1 1 2 2 2 2
4 6 6 5 4 2 1 3 5 4 7 8 9 9 7 6 6 6 5 5 5 6 6 7 7 5 4 4 3 2 2 2 2 2 2 2 2 3 3 3 2 2 1 1 1 1 1 1 1
6 4 6 6 3 2 2 1 3 5 8 8 8 8 7 6 6 5 5 5 6 6 6 6 7 5 3 3 3 2 1 2 1 1 1 1 2 2 2 2 2 2 1 1 0 1 2 1 1
6 8 5 5 5 3 2 4 7 10 10 9 10 9 7 6 6 6 5 5 4 5 5 5 6 5 3 3 2 2 1 1 1 1 1 1 2 1 1 2 2 2 2 1 1 1 2 2 2
5 4 5 4 5 6 5 6 8 15 15 14 12 10 10 9 7 6 5 4 5 5 5 5 4 4 3 3 2 2 1 1 2 2 1 1 2 2 2 2 2 2 3 2 1 2 2 2 3
7 7 7 6 4 5 5 6 5 14 13 13 12 10 9 8 7 6 6 5 5 5 4 4 4 4 3 3 3 2 2 2 2 2 2 2 2 2 2 2 2 2 3 3 3 3 3 2 3
Wind_Direction
279 298 82 54 51 53 36 326 248 286 70 67 79 85 80 61 86 118 142 133 128 124 119 114 111 106 102 98 94 91 89 87 84 82 81 78 75 72 71 69 67 66 67 68 66 63 62 57 50
295 328 63 60 77 81 289 243 201 164 147 132 96 86 80 74 86 109 126 134 128 123 119 117 114 109 105 101 96 93 91 88 85 82 79 77 74 71 68 65 62 60 57 57 57 54 51 46 41
302 310 79 70 99 169 191 222 200 128 131 108 81 63 75 103 110 122 143 137 125 119 119 122 118 114 110 105 101 97 93 89 85 81 78 75 72 68 65 61 57 54 51 49 44 38 34 29 27
49 36 55 71 145 222 189 205 170 106 74 64 92 67 60 99 121 131 139 133 124 122 125 128 125 121 118 113 108 103 99 93 88 84 80 74 70 66 61 55 51 47 44 40 33 20 14 6 359
66 71 57 32 266 263 192 199 153 99 84 74 89 86 61 62 116 132 138 133 131 134 136 136 134 131 128 124 118 113 106 100 92 86 81 74 67 62 57 49 41 36 30 25 18 5 358 348 337
58 71 86 143 283 24 340 125 107 94 108 102 97 103 100 118 126 137 139 139 142 145 146 146 144 141 138 135 130 126 121 112 101 92 79 67 61 46 31 21 7 1 359 360 352 343 338 332 324
111 104 148 200 148 60 156 6 116 127 126 129 124 104 125 142 143 144 143 145 149 149 149 152 152 151 149 148 147 145 142 140 138 126 66 354 328 312 302 294 296 310 326 330 330 325 322 319 312
128 102 92 213 143 175 257 56 111 110 107 128 126 131 157 168 147 140 142 147 152 153 157 162 165 164 163 166 166 166 166 175 196 236 275 307 314 308 285 268 273 286 310 319 320 318 316 311 306
98 83 163 206 173 204 195 99 48 70 97 90 107 138 156 152 140 132 133 140 155 163 171 173 175 180 184 187 189 192 194 205 234 277 303 323 335 327 291 265 264 274 297 310 313 314 314 312 308
102 146 209 215 178 189 165 115 115 91 84 83 92 110 135 144 143 144 151 160 167 173 182 184 185 189 193 198 193 208 224 237 263 289 314 342 6 3 6 317 302 305 314 317 315 316 319 319 312
159 185 205 205 188 169 94 85 95 125 129 156 148 150 153 151 153 157 164 165 171 172 175 180 184 186 186 197 183 198 221 231 257 277 144 57 39 34 30 16 2 351 350 342 333 333 330 323 310
179 230 199 193 201 125 107 100 110 155 174 172 160 158 158 160 167 169 171 170 163 156 165 169 171 165 169 164 159 154 151 152 141 81 72 68 43 35 32 26 11 5 352 343 341 336 332 332 329
212 242 231 213 192 155 140 148 133 158 163 158 156 155 161 171 175 179 173 168 157 151 157 157 157 153 143 125 117 114 123 130 106 63 62 66 61 40 37 32 22 8 2 357 350 346 343 343 342
210 219 233 215 205 165 142 150 124 172 160 158 161 168 172 178 177 172 167 164 161 156 157 148 143 141 126 116 113 115 121 114 88 70 71 73 73 67 52 30 17 9 5 6 6 354 349 338 340
194 206 263 234 201 165 123 94 178 175 163 167 173 174 177 182 179 180 177 171 165 161 153 144 141 130 121 118 116 112 113 104 89 80 73 73 71 71 67 39 20 359 8 17 14 3 0 1 1
152 155 204 255 183 171 126 189 235 175 161 173 181 178 183 190 188 184 177 168 163 159 153 151 140 131 126 120 111 107 106 105 98 89 75 65 63 66 63 44 13 359 14 13 7 5 358 356 353
76 166 201 249 200 153 136 193 237 181 161 173 183 186 184 186 191 185 174 167 165 161 153 148 141 136 131 119 107 102 103 102 107 96 78 64 58 58 64 45 5 11 17 7 359 12 360 348 344
195 189 202 208 200 143 144 199 201 166 165 172 177 179 178 179 190 178 171 165 164 159 151 145 142 138 126 108 93 76 70 76 91 91 84 74 62 63 64 45 15 20 21 8 2 357 357 346 339
190 191 224 224 184 145 155 180 189 187 156 160 181 184 180 190 189 169 164 157 152 153 147 149 146 145 129 116 113 108 108 111 74 65 99 89 79 70 64 40 17 19 23 7 2 3 1 357 2
230 237 244 258 172 144 140 145 150 164 170 170 173 173 176 165 155 150 149 153 155 159 156 155 154 150 145 140 143 144 144 156 153 348 62 105 100 68 59 54 32 22 21 17 17 23 12 359 18
238 217 204 172 102 84 99 29 22 1 81 120 130 139 148 158 161 157 153 155 152 159 164 164 161 154 148 134 112 88 66 48 36 13 307 282 209 97 62 58 53 36 40 15 5 22 37 9 356
229 228 192 154 121 136 122 125 292 179 97 112 126 127 138 154 149 151 157 155 156 165 153 148 151 148 142 132 126 129 132 159 220 224 242 277 263 241 286 47 53 45 36 9 353 29 32 49 5
211 209 141 128 115 85 77 125 265 176 146 177 163 146 145 151 146 145 151 150 143 138 135 134 133 134 137 135 136 130 134 183 226 254 252 297 302 281 273 11 50 41 15 357 6 17 24 46 46
151 78 65 61 78 108 213 145 216 210 186 178 168 145 140 133 132 131 119 109 104 106 118 125 124 124 130 129 131 135 144 161 149 349 287 294 297 297 285 264 241 314 346 342 352 13 22 21 35
100 101 82 52 39 244 232 155 225 217 187 169 163 154 145 135 127 119 111 106 112 114 119 127 126 125 130 129 138 150 159 166 186 217 219 232 262 267 267 258 241 249 277 319 6 28 12 13 25
154 137 147 159 185 263 341 214 257 207 159 146 144 145 140 132 125 123 128 124 119 121 120 122 124 125 129 133 149 157 156 156 191 211 205 214 226 240 247 243 242 249 266 316 23 12 336 5 12
137 150 156 130 134 117 251 279 357 87 122 134 139 138 144 141 132 127 124 122 120 119 123 129 125 117 122 128 121 107 133 148 186 217 200 222 239 245 237 237 241 255 260 260 233 322 310 345 352
153 146 122 133 148 163 207 213 197 177 168 158 154 153 151 141 130 124 120 120 120 125 120 119 121 126 122 115 115 107 103 119 114 75 29 314 297 289 264 267 255 249 252 248 242 278 290 323 322
151 145 137 137 154 149 181 244 210 184 175 168 167 161 154 148 143 137 130 123 115 111 113 114 117 112 109 113 102 92 84 74 75 56 3 348 349 326 289 272 249 236 242 244 246 282 290 302 310
165 168 152 152 190 170 170 251 225 176 171 163 162 160 155 148 145 138 128 116 108 106 106 112 116 116 121 122 107 94 71 57 46 9 335 337 355 358 335 317 297 271 255 244 237 262 270 275 285
Height
1519 1518 1518 1518 1520 1526 1528 1522 1516 1514 1513 1513 1511 1511 1515 1518 1522 1530 1528 1528 1529 1529 1530 1530 1530 1530 1530 1530 1530 1530 1529 1529 1529 1529 1529 1529 1529 1529 1529 1529 1529 1529 1529 1529 1528 1528 1528 1528 1528
1518 1518 1519 1519 1525 1534 1530 1519 1516 1513 1513 1513 1513 1515 1517 1521 1523 1525 1526 1529 1530 1530 1531 1531 1531 1531 1531 1531 1530 1530 1530 1529 1529 1529 1529 1529 1529 1529 1529 1529 1529 1529 1528 1528 1528 1528 1528 1528 1528
1518 1518 1519 1520 1526 1531 1526 1517 1514 1512 1512 1512 1514 1517 1519 1523 1525 1526 1528 1530 1531 1531 1532 1532 1532 1531 1531 1531 1531 1530 1530 1530 1529 1529 1529 1529 1529 1529 1529 1529 1528 1528 1528 1528 1527 1527 1527 1527 1527
1518 1519 1519 1523 1525 1520 1516 1514 1513 1512 1513 1513 1515 1519 1522 1525 1525 1527 1529 1531 1532 1532 1532 1533 1532 1532 1532 1532 1531 1531 1530 1530 1529 1529 1529 1529 1529 1529 1528 1528 1528 1528 1527 1527 1527 1526 1526 1526 1526
1518 1518 1522 1526 1523 1518 1514 1512 1512 1512 1513 1516 1516 1522 1525 1527 1527 1529 1530 1532 1532 1533 1533 1533 1533 1533 1533 1532 1532 1531 1531 1530 1530 1530 1530 1529 1529 1529 1528 1528 1528 1527 1527 1526 1525 1525 1525 1525 1525
1518 1519 1528 1530 1523 1518 1515 1514 1513 1514 1516 1518 1519 1523 1527 1529 1529 1530 1532 1533 1534 1534 1534 1534 1534 1534 1534 1533 1533 1532 1532 1531 1531 1531 1530 1530 1530 1529 1528 1528 1527 1527 1526 1525 1524 1524 1524 1524 1524
1519 1521 1526 1525 1523 1520 1516 1514 1514 1515 1516 1518 1519 1524 1528 1530 1531 1532 1533 1534 1535 1535 1535 1535 1535 1535 1535 1535 1534 1533 1533 1533 1532 1532 1531 1531 1530 1529 1529 1528 1527 1526 1525 1525 1524 1523 1523 1523 1523
1517 1521 1524 1524 1523 1521 1516 1515 1515 1515 1517 1519 1520 1522 1527 1530 1531 1533 1534 1535 1536 1536 1536 1536 1536 1536 1536 1536 1535 1535 1534 1534 1533 1533 1532 1531 1530 1530 1529 1528 1527 1526 1525 1524 1524 1523 1522 1522 1522
1517 1524 1527 1523 1521 1519 1516 1515 1516 1516 1517 1518 1519 1521 1524 1528 1531 1533 1534 1535 1536 1537 1537 1537 1537 1537 1537 1536 1536 1536 1535 1535 1534 1533 1532 1532 1531 1530 1529 1528 1527 1526 1525 1524 1524 1523 1522 1522 1521
1517 1525 1522 1517 1516 1515 1515 1515 1516 1518 1518 1520 1521 1523 1526 1529 1531 1533 1534 1535 1536 1537 1538 1538 1538 1538 1537 1537 1537 1536 1536 1535 1534 1534 1533 1532 1531 1530 1529 1528 1527 1526 1525 1524 1523 1522 1522 1521 1521
1515 1519 1516 1515 1514 1514 1514 1515 1516 1518 1521 1520 1520 1523 1526 1529 1531 1532 1534 1535 1536 1537 1537 1538 1538 1538 1538 1538 1537 1537 1536 1536 1535 1534 1533 1532 1531 1530 1529 1528 1527 1526 1525 1524 1523 1522 1521 1520 1520
1515 1514 1513 1514 1514 1514 1515 1516 1517 1517 1519 1519 1521 1523 1526 1528 1530 1532 1533 1535 1536 1537 1538 1538 1539 1539 1539 1538 1538 1537 1537 1536 1535 1534 1533 1532 1531 1530 1529 1528 1526 1525 1524 1523 1522 1521 1520 1520 1519
1514 1514 1513 1513 1513 1514 1515 1516 1517 1518 1518 1520 1522 1524 1526 1528 1530 1532 1534 1535 1536 1537 1538 1539 1539 1539 1539 1539 1539 1538 1537 1537 1536 1535 1533 1532 1531 1530 1529 1527 1526 1525 1524 1522 1521 1520 1519 1519 1518
1513 1513 1513 1512 1513 1513 1515 1516 1517 1518 1518 1520 1522 1524 1526 1528 1530 1532 1534 1535 1536 1537 1538 1539 1539 1540 1540 1539 1539 1538 1538 1537 1536 1535 1534 1532 1531 1530 1528 1527 1526 1524 1523 1521 1520 1519 1518 1517 1517
1512 1514 1514 1512 1512 1513 1515 1518 1517 1517 1519 1520 1522 1524 1526 1528 1530 1531 1532 1534 1536 1537 1538 1539 1540 1540 1540 1540 1539 1539 1538 1537 1536 1535 1534 1532 1531 1530 1528 1527 1525 1524 1522 1521 1519 1518 1517 1516 1516
1512 1516 1521 1514 1512 1513 1518 1525 1517 1517 1519 1520 1521 1523 1525 1527 1529 1530 1532 1534 1536 1537 1538 1539 1540 1540 1540 1540 1540 1539 1539 1538 1537 1535 1534 1532 1531 1530 1528 1527 1525 1524 1522 1520 1519 1518 1517 1516 1515
1518 1524 1523 1516 1511 1512 1517 1522 1516 1516 1518 1519 1521 1523 1525 1526 1528 1530 1532 1534 1535 1537 1538 1539 1540 1540 1540 1540 1540 1540 1539 1538 1537 1536 1534 1533 1531 1530 1528 1527 1525 1524 1522 1520 1519 1517 1516 1515 1515
1523 1522 1520 1518 1512 1513 1518 1519 1516 1516 1517 1519 1521 1522 1524 1525 1527 1529 1531 1533 1535 1537 1538 1539 1540 1540 1540 1540 1540 1540 1539 1539 1537 1536 1535 1534 1532 1530 1529 1527 1526 1524 1522 1521 1519 1518 1517 1515 1515
1515 1518 1519 1515 1510 1514 1518 1519 1517 1517 1517 1519 1520 1521 1522 1525 1527 1529 1531 1533 1535 1537 1538 1539 1539 1540 1540 1540 1540 1540 1539 1539 1538 1537 1536 1534 1533 1531 1529 1527 1526 1524 1523 1521 1520 1518 1517 1516 1515
1514 1519 1519 1514 1510 1514 1519 1521 1518 1517 1517 1518 1518 1520 1522 1524 1527 1529 1531 1533 1534 1536 1537 1538 1539 1540 1540 1540 1540 1540 1539 1539 1538 1537 1536 1535 1533 1532 1530 1528 1527 1525 1524 1522 1521 1519 1518 1517 1516
1514 1517 1517 1517 1513 1515 1521 1528 1525 1520 1519 1519 1519 1520 1522 1523 1526 1528 1531 1532 1534 1535 1537 1538 1539 1540 1540 1540 1540 1540 1539 1539 1538 1538 1537 1536 1534 1533 1531 1529 1528 1526 1524 1523 1522 1520 1519 1518 1517
1517 1510 1511 1514 1522 1530 1527 1542 1530 1523 1522 1520 1520 1521 1522 1524 1526 1528 1530 1532 1533 1535 1536 1537 1538 1539 1540 1540 1540 1540 1539 1539 1538 1538 1537 1536 1535 1534 1532 1530 1529 1527 1525 1524 1523 1522 1521 1520 1519
1511 1507 1510 1515 1524 1532 1531 1540 1536 1526 1526 1523 1521 1521 1522 1524 1525 1527 1529 1531 1532 1534 1535 1536 1538 1539 1539 1540 1540 1539 1539 1539 1538 1538 1537 1536 1535 1534 1533 1531 1530 1528 1527 1525 1524 1523 1522 1521 1520
1506 1511 1515 1522 1528 1541 1534 1538 1538 1529 1523 1521 1520 1521 1521 1523 1525 1527 1529 1530 1532 1533 1534 1536 1537 1538 1539 1539 1539 1539 1539 1538 1538 1537 1537 1536 1535 1534 1533 1532 1531 1529 1528 1526 1525 1524 1523 1522 1521
1509 1522 1535 1541 1546 1544 1530 1533 1532 1518 1515 1516 1518 1520 1521 1523 1525 1526 1528 1530 1531 1532 1534 1535 1536 1537 1538 1538 1539 1539 1538 1538 1538 1537 1537 1536 1536 1535 1534 1532 1531 1530 1529 1527 1526 1525 1524 1523 1522
1512 1519 1536 1547 1550 1544 1531 1533 1523 1511 1512 1514 1516 1519 1521 1522 1524 1526 1527 1529 1530 1532 1533 1534 1535 1536 1537 1538 1538 1538 1538 1538 1537 1537 1537 1536 1535 1535 1534 1533 1532 1531 1529 1528 1527 1526 1525 1524 1523
1511 1517 1518 1531 1537 1544 1538 1529 1519 1513 1515 1516 1517 1519 1521 1522 1524 1526 1527 1529 1530 1531 1533 1534 1535 1536 1536 1537 1537 1537 1537 1537 1537 1537 1536 1536 1535 1534 1534 1533 1532 1531 1530 1529 1528 1526 1525 1525 1524
1501 1507 1521 1530 1542 1548 1540 1534 1530 1520 1517 1516 1517 1518 1520 1522 1524 1526 1527 1529 1530 1531 1532 1534 1535 1535 1536 1536 1537 1537 1537 1537 1537 1536 1536 1535 1535 1534 1533 1533 1532 1531 1530 1529 1528 1527 1526 1525 1524
1503 1508 1514 1524 1527 1541 1547 1536 1508 1509 1509 1512 1515 1517 1519 1521 1523 1525 1527 1529 1530 1531 1532 1533 1534 1535 1535 1536 1536 1536 1536 1536 1536 1536 1535 1535 1534 1533 1533 1532 1531 1531 1530 1529 1528 1527 1526 1525 1524
1492 1498 1508 1522 1525 1527 1533 1527 1497 1501 1505 1508 1513 1516 1518 1521 1523 1525 1527 1529 1530 1531 1532 1533 1534 1534 1535 1535 1535 1535 1535 1535 1535 1535 1534 1534 1533 1533 1532 1531 1530 1530 1529 1528 1527 1526 1525 1524 1523